JL1RTQ-13 Weather Reports


time (UTC)temp
F
wind
direction
speed
knots
gust
knots
rain 1hr
in
rain 24hr
in
rain mn
in
humidity
%
barometer
mb
20260505153030 61 206 2.6 9.6 0.00 0.00 0.00 61 1023.1
20260505151533 61 130 2.6 10.4 0.00 0.00 0.00 61 1023.4
20260505124542 62 167 4.3 11.3 0.00 0.00 0.00 53 1023.1
20260505123037 62 146 3.5 7.8 0.00 0.00 0.00 52 1023.1
20260505121559 62 222 4.3 9.6 0.00 0.00 0.00 51 1023.1
20260505120029 62 135 4.3 10.4 0.00 0.00 0.00 49 1023.0
20260505114534 62 141 4.3 13.9 0.00 0.00 0.00 47 1023.0
20260505113032 62 138 3.5 10.4 0.00 0.00 0.00 47 1022.8
20260505111535 63 161 5.2 13.0 0.00 0.00 0.00 44 1022.6
20260505101535 64 194 3.5 11.3 0.00 0.00 0.00 38 1022.1
20260505100038 64 148 3.5 13.0 0.00 0.00 0.00 40 1022.0
20260505094528 65 200 2.6 13.9 0.00 0.00 0.00 42 1021.7
20260505093031 66 147 5.2 13.0 0.00 0.00 0.00 41 1021.2
20260505091536 67 134 6.1 14.8 0.00 0.00 0.00 39 1021.2
20260505090032 68 186 6.1 14.8 0.00 0.00 0.00 40 1020.9
20260505084528 69 208 5.2 13.0 0.00 0.00 0.00 38 1020.7
20260505083046 70 209 7.0 15.6 0.00 0.00 0.00 36 1020.6
20260505081532 71 125 4.3 15.6 0.00 0.00 0.00 34 1020.4
20260505080044 73 251 6.1 12.2 0.00 0.00 0.00 33 1020.3
20260505074529 73 137 3.5 12.2 0.00 0.00 0.00 24 1020.3
20260505073038 73 149 4.3 12.2 0.00 0.00 0.00 21 1020.1
20260505071538 73 169 6.1 11.3 0.00 0.00 0.00 21 1019.9
20260505070030 74 130 6.1 11.3 0.00 0.00 0.00 20 1019.8
20260505064531 74 130 3.5 11.3 0.00 0.00 0.00 20 1019.7
20260505063042 74 63 2.6 7.8 0.00 0.00 0.00 21 1019.5
20260505061534 74 125 2.6 7.8 0.00 0.00 0.00 22 1019.6
20260505060029 73 136 3.5 8.7 0.00 0.00 0.00 23 1019.6
20260505054541 72 61 3.5 8.7 0.00 0.00 0.00 23 1019.6
20260505053028 73 138 3.5 7.0 0.00 0.00 0.00 22 1019.8
20260505051538 72 100 4.3 7.0 0.00 0.00 0.00 23 1019.7
20260505041545 70 316 3.5 8.7 0.00 0.00 0.00 21 1020.3
20260505040030 70 34 6.1 11.3 0.00 0.00 0.00 22 1020.3
20260505034533 70 20 3.5 10.4 0.00 0.00 0.00 21 1020.3
20260505033028 70 36 3.5 12.2 0.00 0.00 0.00 25 1020.3
20260505031534 69 34 6.1 11.3 0.00 0.00 0.00 24 1020.3
20260505030038 69 23 7.0 14.8 0.00 0.00 0.00 24 1020.5
20260505024531 69 34 5.2 11.3 0.00 0.00 0.00 24 1020.5
20260505023031 68 20 7.0 14.8 0.00 0.00 0.00 24 1020.6
20260505021530 68 328 7.0 11.3 0.00 0.00 0.00 23 1020.7
20260505020038 68 283 6.1 12.2 0.00 0.00 0.00 24 1020.6
20260505014528 67 17 7.0 13.0 0.00 0.00 0.00 25 1020.8
20260505013032 66 329 7.0 14.8 0.00 0.00 0.00 27 1020.8
20260505011534 65 313 7.8 13.9 0.00 0.00 0.00 29 1020.7
20260505010044 65 9 7.8 13.9 0.00 0.00 0.00 26 1020.7
20260505004528 64 335 8.7 17.4 0.00 0.00 0.00 28 1020.7
20260505003030 64 328 7.8 14.8 0.00 0.00 0.00 30 1020.6
20260505001535 64 287 6.1 13.9 0.00 0.00 0.00 29 1020.3
20260505000039 63 249 5.2 9.6 0.00 0.00 0.00 32 1020.5
20260504234533 62 285 6.1 13.0 0.00 0.00 0.00 34 1020.4
20260504233031 61 243 8.7 15.6 0.00 0.00 0.00 34 1020.6
20260504231532 61 324 7.8 12.2 0.00 0.00 0.00 35 1020.5
20260504230030 60 319 7.8 13.9 0.00 0.00 0.00 37 1020.4
20260504224535 59 276 8.7 14.8 0.00 0.00 0.00 37 1019.9
20260504223032 59 308 7.8 13.9 0.00 0.00 0.00 41 1020.1
20260504221530 58 288 7.0 12.2 0.00 0.00 0.00 41 1020.1
20260504220030 58 300 7.8 14.8 0.00 0.00 0.00 43 1019.7
20260504214539 57 297 6.1 13.0 0.00 0.00 0.00 43 1019.6
20260504213030 57 283 7.8 14.8 0.00 0.00 0.00 43 1019.3
20260504211530 56 262 6.1 13.9 0.00 0.00 0.00 44 1018.8
20260504210030 56 283 5.2 10.4 0.00 0.00 0.00 46 1018.8
20260504204530 55 259 3.5 7.0 0.00 0.10 0.00 48 1018.6
20260504203030 54 274 3.5 10.4 0.00 0.10 0.00 49 1018.2
20260504201529 54 290 5.2 11.3 0.00 0.10 0.00 49 1017.9
20260504200035 54 326 6.1 13.0 0.00 0.10 0.00 50 1017.6
20260504194531 54 330 6.1 11.3 0.00 0.22 0.00 51 1017.4
20260504193030 54 291 7.0 11.3 0.00 0.22 0.00 51 1017.1
20260504191533 53 326 5.2 11.3 0.00 0.22 0.00 52 1016.9
20260504190032 53 313 3.5 11.3 0.00 0.22 0.00 53 1016.7
20260504184536 53 281 4.3 13.0 0.00 0.22 0.00 53 1016.4
20260504183036 53 13 6.1 16.5 0.00 0.22 0.00 53 1016.0
20260504181532 53 340 10.4 20.9 0.00 0.22 0.00 54 1015.4
20260504180030 54 309 10.4 27.8 0.00 0.22 0.00 53 1014.9
20260504174532 54 309 7.0 23.5 0.00 0.22 0.00 53 1014.2
20260504173029 54 337 8.7 21.7 0.00 0.22 0.00 52 1014.0
20260504171530 54 336 8.7 20.0 0.00 0.22 0.00 51 1013.7